Location: Praha
(50.0830°N, 14.4670°E)
Time: 15:01:35
(UTC+01:00)

ISS - Pass Details

Date: 11 December 2018
Orbit: 401 x 408 km, 51.6° (Epoch: 12 December)

Event Time Altitude Azimuth Distance (km) Brightness Sun altitude
Rises 18:12:33 0° 283° (WNW) 2,319 1.1 -20.1°
Reaches altitude 10° 18:15:04 10° 263° (W) 1,455 0.2 -20.5°
Maximum altitude 18:17:20 18° 219° (SW) 1,078 -1.1 -20.9°
Drops below altitude 10° 18:19:36 10° 175° (S) 1,447 -1.0 -21.2°
Enters shadow 18:19:42 10° 174° (S) 1,476 -0.9 -21.2°
